This demonstration page uses our WeatherBlox Daily Observations layout. Learn more.

Left ArrowRight Arrow

34.16533, -84.80231

Hourly Observations for October 24, 2020

Temp ( °F °C ) Dew Point ( °F °C ) Humidity (%) Winds ( mph kmh ) Pressure ( in mb ) Visibility ( mi km ) Precip ( " mm )
12:53 am 00:53 Clear 63 17.2 61 16.1 93 93 Calm 30.03 1017 10 16 0.00 0.00
1:53 am 01:53 Clear 62 16.7 60 15.6 93 93 Calm 30.02 1017 9 14 0.00 0.00
2:53 am 02:53 Mostly Cloudy 63 17.2 60 15.6 90 90 Calm 30.01 1016 10 16 0.00 0.00
3:53 am 03:53 Cloudy 65 18.3 62 16.7 90 90 Calm 30.01 1016 10 16 0.00 0.00
4:53 am 04:53 Cloudy 65 18.3 62 16.7 90 90 Calm 30.00 1016 10 16 0.00 0.00
5:53 am 05:53 Cloudy 66 18.9 63 17.2 90 90 Calm 30.00 1016 10 16 0.00 0.00
6:53 am 06:53 Mostly Cloudy 66 18.9 63 17.2 90 90 Calm 30.01 1016 10 16 0.00 0.00
7:21 am 07:21 Cloudy 66 18.9 63 17.2 90 90 Calm 30.04 1017 10 16 0.00 0.00
7:53 am 07:53 Cloudy 66 18.9 63 17.2 90 90 Calm 30.01 1016 10 16 0.00 0.00
8:53 am 08:53 Cloudy 68 20 64 17.8 87 87 ESE 3 6 30.01 1016 10 16 0.00 0.00
9:53 am 09:53 Cloudy 71 21.7 65 18.3 81 81 Calm 30.02 1017 10 16 0.00 0.00
10:53 am 10:53 Cloudy 74 23.3 66 18.9 76 76 Calm 30.01 1016 10 16 0.00 0.00
11:53 am 11:53 Cloudy 74 23.3 66 18.9 76 76 E 3 6 30.00 1016 10 16 0.00 0.00
12:38 pm 12:38 Mostly Cloudy 77 25 67 19.4 71 71 VRB 5 7 29.99 1016 10 16 0.00 0.00
12:53 pm 12:53 Partly Cloudy 77 25 66 18.9 69 69 Calm 29.98 1015 10 16 0.00 0.00
1:03 pm 13:03 Mostly Cloudy 77 25 66 18.9 69 69 ENE 3 6 29.98 1015 10 16 0.00 0.00
1:53 pm 13:53 Mostly Sunny 77 25 66 18.9 69 69 Calm 29.94 1014 10 16 0.00 0.00
2:34 pm 14:34 Mostly Cloudy 77 25 67 19.4 71 71 Calm 29.93 1014 10 16 0.00 0.00
2:53 pm 14:53 Cloudy 76 24.4 67 19.4 74 74 Calm 29.92 1013 10 16 0.00 0.00
3:05 pm 15:05 Cloudy 75 23.9 68 20 79 79 Calm 29.92 1013 10 16 0.00 0.00
3:35 pm 15:35 Cloudy with Nearby Thunderstorms 73 22.8 68 20 84 84 Calm 29.92 1013 5 8 0.01 0.25
4:24 pm 16:24 Cloudy with Rain 69 20.6 66 18.9 90 90 SSE 7 11 29.93 1014 2 3 0.23 5.84
4:34 pm 16:34 Cloudy with Heavy Rain 68 20 65 18.3 90 90 N 6 9 29.93 1014 1 1 0.59 14.99
4:49 pm 16:49 Cloudy with Rain 68 20 66 19 94 94 Calm 29.92 1013 2 3 0.78 19.81
4:53 pm 16:53 Cloudy with Rain 69 20.6 66 18.9 90 90 Calm 29.91 1013 3 5 0.79 20.07
5:01 pm 17:01 Cloudy with Light Rain 68 20 65 18.3 90 90 Calm 29.92 1013 6 10 0.01 0.25
5:42 pm 17:42 Cloudy with Rain 68 20 66 18.9 93 93 Calm 29.93 1014 2 3 0.09 2.29
6:18 pm 18:18 Partly Cloudy with Rain 68 20 65 18.3 90 90 Calm 29.94 1014 3 4 0.15 3.81
6:36 pm 18:36 Cloudy with Rain 68 20 65 18.3 90 90 Calm 29.94 1014 4 6 0.21 5.33
6:53 pm 18:53 Cloudy with Rain 68 20 65 18.3 90 90 Calm 29.93 1014 5 8 0.25 6.35
7:53 pm 19:53 Cloudy with Light Rain 67 19.4 64 17.8 91 91 E 5 7 29.92 1013 10 16 0.08 2.03
8:53 pm 20:53 Mostly Cloudy with Light Rain 67 19.4 65 18.3 93 93 Calm 29.92 1013 10 16 0.02 0.51
9:53 pm 21:53 Cloudy with Light Rain 68 20 64 17.8 87 87 SE 5 7 29.93 1013 7 11 0.02 0.51
10:53 pm 22:53 Cloudy 67 19.4 65 18.3 93 93 ENE 3 6 29.92 1013 10 16 0.06 1.52
11:53 pm 23:53 Cloudy 68 20 65 18.3 90 90 VRB 3 6 29.92 1013 10 16 0.01 0.25

Powered by AerisWeather